Weather History for PHJR - March, 2013

Change the Weather History Date:

Sunday, March 3, 2013

  Actual Average (PHNL) Record (PHNL)
Temperature  
Mean Temperature 74 °F 74 °F  
Max Temperature 79 °F 81 °F 86 °F (1977)
Min Temperature 68 °F 67 °F 58 °F (1991)
Degree Days  
Heating Degree Days 0 0  
Month to date heating degree days 0  
Since 1 July heating degree days 0  
Cooling Degree Days 8 9  
Month to date cooling degree days 26  
Year to date cooling degree days 508  
Growing Degree Days 24 (Base 50)    
Moisture  
Dew Point 54 °F    
Average Humidity 53    
Maximum Humidity 64    
Minimum Humidity 40    
Precipitation  
Precipitation 0.00 in 0.07 in 2.14 in (1996)
Month to date precipitation 0.20  
Year to date precipitation 4.50  
Snow  
Snow 0.00 in - - ()
Month to date snowfall  
Since 1 July snowfall  
Snow Depth -    
Sea Level Pressure  
Sea Level Pressure 30.18 in    
Wind  
Wind Speed 7 mph (ENE)    
Max Wind Speed 13 mph    
Max Gust Speed 22 mph    
Visibility 10 miles    
Events      
T = Trace of Precipitation, MM = Missing Value Source: NWS Daily Summary

Daily Weather History Graph

Daily Weather History Graph

Search for Another Location

Airport or City:

Trip Planner

Search our weather history database for the weather conditions in past years. The results will help you decide how hot, cold, wet, or windy it might be!

Date:

Astronomy

Mar. 03, 2013 Rise Set
Actual Time 6:50 AM HST 6:37 PM HST
Civil Twilight 6:28 AM HST 6:59 PM HST
Nautical Twilight 6:02 AM HST 7:25 PM HST
Astronomical Twilight 5:36 AM HST 7:51 PM HST
Moon No Moon Rise 11:05 AM HST (3/3)
Length of Visible Light 12h 31m
Length of Day
11h 46m
Waning Gibbous, 61% of the Moon is Illuminated
Mar 3
Waning Gibbous
Mar 4
Last Quarter
Mar 11
New
Mar 19
First Quarter
Mar 26
Full

Hourly Weather History & Observations

Time (HST) Temp. Dew Point Humidity Pressure Visibility Wind Dir Wind Speed Gust Speed Precip Events Conditions
12:53 AM 70.0 °F 55.0 °F 59% 30.22 in 10.0 mi ENE 6.9 mph - N/A   Partly Cloudy
1:53 AM 69.1 °F 53.1 °F 57% 30.20 in 10.0 mi Variable 3.5 mph - N/A   Clear
2:53 AM 69.1 °F 55.0 °F 61% 30.17 in 10.0 mi ENE 8.1 mph - N/A   Scattered Clouds
3:53 AM 68.0 °F 51.1 °F 55% 30.16 in 10.0 mi ENE 4.6 mph - N/A   Clear
4:53 AM 68.0 °F 52.0 °F 56% 30.15 in 10.0 mi Variable 5.8 mph - N/A   Clear
5:53 AM 70.0 °F 53.1 °F 55% 30.16 in 10.0 mi Variable 5.8 mph - N/A   Partly Cloudy
6:53 AM 70.0 °F 53.1 °F 55% 30.18 in 10.0 mi ENE 6.9 mph - N/A   Mostly Cloudy
7:53 AM 71.1 °F 52.0 °F 51% 30.19 in 10.0 mi Variable 6.9 mph - N/A   Partly Cloudy
8:53 AM 73.9 °F 54.0 °F 50% 30.20 in 10.0 mi ENE 10.4 mph 19.6 mph N/A   Scattered Clouds
9:53 AM 75.9 °F 53.1 °F 45% 30.21 in 10.0 mi ENE 12.7 mph 21.9 mph N/A   Partly Cloudy
10:53 AM 78.1 °F 54.0 °F 43% 30.21 in 10.0 mi East 10.4 mph 21.9 mph N/A   Partly Cloudy
11:53 AM 79.0 °F 54.0 °F 42% 30.19 in 10.0 mi ENE 8.1 mph 19.6 mph N/A   Partly Cloudy
12:53 PM 79.0 °F 54.0 °F 42% 30.17 in 10.0 mi Variable 5.8 mph 17.3 mph N/A   Mostly Cloudy
1:53 PM 77.0 °F 55.0 °F 47% 30.15 in 10.0 mi ENE 8.1 mph - N/A   Mostly Cloudy
2:53 PM 79.0 °F 53.1 °F 40% 30.14 in 10.0 mi Variable 6.9 mph 20.7 mph N/A   Partly Cloudy
3:53 PM 78.1 °F 52.0 °F 40% 30.14 in 10.0 mi ENE 9.2 mph 19.6 mph N/A   Clear
4:53 PM 77.0 °F 53.1 °F 43% 30.14 in 10.0 mi Variable 6.9 mph 17.3 mph N/A   Partly Cloudy
5:53 PM 75.0 °F 55.9 °F 51% 30.16 in 10.0 mi ENE 5.8 mph - N/A   Clear
6:53 PM 72.0 °F 57.0 °F 59% 30.17 in 10.0 mi Variable 5.8 mph - N/A   Clear
7:09 PM 71.6 °F 55.4 °F 57% 30.16 in 10.0 mi ENE 5.8 mph - N/A   Partly Cloudy
7:53 PM 71.1 °F 57.0 °F 61% 30.19 in 10.0 mi Variable 5.8 mph - N/A   Scattered Clouds
8:53 PM 70.0 °F 57.0 °F 63% 30.19 in 10.0 mi Variable 4.6 mph - N/A   Partly Cloudy
9:30 PM 69.8 °F 57.2 °F 64% 30.18 in 10.0 mi East 5.8 mph - N/A   Partly Cloudy
9:53 PM 70.0 °F 57.0 °F 63% 30.21 in 10.0 mi ENE 6.9 mph - N/A   Clear
10:53 PM 69.1 °F 55.9 °F 63% 30.21 in 10.0 mi ENE 5.8 mph - N/A   Clear
11:53 PM 69.1 °F 55.0 °F 61% 30.20 in 10.0 mi ENE 6.9 mph - N/A   Scattered Clouds